STARLINK-32805 (62740 NORAD) Tracking and Keplerian Element Data

This shows tracking and keplerian element data for the satellite.

Feedback or suggestion? Click here.




ElementValue
Catalog62740
NameSTARLINK-32805
Epoch Orbit221
Epoch Day35.25001157
Epoch Year2025
RAAN253.8704
Inclination42.9996
Eccentricity0.0001467
Argument of Perigee269.828
Mean Anonmoly97.45
Mean Motion15.64341894
Decay Rate-0.0147854
L11 62740U 25014F 25035.25001157 -.01478540 00000+0 -16785-1 0 9995
L22 62740 42.9996 253.8704 0001467 269.8280 97.4500 15.64341894 2217



Live tracking and technical data element details for STARLINK-32805 (NORAD 62740). STARLINK-32805 can be tracked NOW for your location showing map with azimuth and elevation plus other details from your city location.







IsCatalogInMostPopularTable: catalog: 62740, numindb: 199
Update: records affected: 1



GetName: 62740 STARLINK-32805

Hit Count: updated at: Mon, 17 Nov 2025 19:37:41 GMT